KC4LW Weather Reports


Display with metric or nautical units.
time (UTC)temp
F
wind
direction
speed
MPH
gust
MPH
rain 1hr
in
rain 24hr
in
rain mn
in
humidity
%
barometer
mb
20260508210059 74 74 2.0 10.0 0.00 0.00 0.00 81 1012.3
20260508204605 75 190 3.0 10.0 0.00 0.00 0.00 80 1012.3
20260508203058 75 83 2.0 10.0 0.00 0.00 0.00 79 1012.4
20260508201555 76 91 2.0 8.0 0.00 0.00 0.00 79 1012.5
20260508200100 76 106 1.0 7.0 0.00 0.00 0.00 80 1012.8
20260508194554 75 40 1.0 7.0 0.00 0.00 0.00 80 1013.1
20260508193100 75 81 1.0 6.0 0.00 0.00 0.00 82 1013.3
20260508191553 75 82 0.0 6.0 0.00 0.00 0.00 80 1013.6
20260508190105 75 105 2.0 9.0 0.00 0.00 0.00 80 1013.6
20260508184555 75 5 1.0 4.0 0.00 0.00 0.00 80 1013.5
20260508183053 75 30 1.0 4.0 0.00 0.00 0.00 80 1013.8
20260508181608 75 105 1.0 8.0 0.00 0.00 0.00 79 1013.8
20260508180104 76 67 2.0 7.0 0.00 0.00 0.00 77 1013.6
20260508174604 75 76 2.0 6.0 0.00 0.00 0.00 77 1013.9
20260508173053 75 352 1.0 7.0 0.00 0.00 0.00 77 1013.9
20260508171555 75 62 1.0 7.0 0.00 0.00 0.00 76 1014.3
20260508170059 75 103 1.0 7.0 0.00 0.00 0.00 78 1014.4
20260508164556 74 35 2.0 7.0 0.00 0.00 0.00 80 1014.5
20260508163053 73 135 1.0 7.0 0.00 0.00 0.00 79 1014.8
20260508161601 74 0 1.0 4.0 0.00 0.00 0.00 80 1014.9
20260508160104 74 111 1.0 4.0 0.00 0.00 0.00 79 1015.0
20260508154559 75 98 1.0 6.0 0.00 0.00 0.00 79 1015.1
20260508153103 74 72 0.0 6.0 0.00 0.00 0.00 79 1015.1
20260508151558 74 12 0.0 5.0 0.00 0.00 0.00 78 1015.3
20260508150059 74 80 1.0 3.0 0.00 0.00 0.00 78 1015.0
20260508144555 75 98 1.0 4.0 0.00 0.00 0.00 79 1015.1
20260508143100 74 69 2.0 7.0 0.00 0.00 0.00 81 1014.8
20260508141559 73 85 1.0 6.0 0.00 0.00 0.00 82 1015.0
20260508140100 73 67 0.0 3.0 0.00 0.00 0.00 82 1015.0
20260508134600 73 0 0.0 3.0 0.00 0.00 0.00 82 1015.0
20260508133050 73 0 1.0 6.0 0.00 0.00 0.00 82 1014.9
20260508131551 73 0 2.0 8.0 0.00 0.00 0.00 83 1014.4
20260508130050 73 351 1.0 4.0 0.00 0.00 0.00 83 1014.2
20260508124550 72 166 1.0 5.0 0.00 0.00 0.00 84 1014.6
20260508123106 72 159 1.0 6.0 0.00 0.00 0.00 87 1014.4
20260508121556 74 0 1.0 11.0 0.00 0.00 0.00 90 1014.1
20260508120055 75 0 0.0 3.0 0.00 0.00 0.00 92 1013.8
20260508114553 75 0 0.0 2.0 0.00 0.00 0.00 93 1013.4
20260508113100 75 252 0.0 2.0 0.00 0.00 0.00 93 1013.2
20260508111556 75 0 0.0 4.0 0.00 0.00 0.00 93 1013.0
20260508110053 75 0 0.0 2.0 0.00 0.00 0.00 93 1012.8
20260508104555 75 312 0.0 2.0 0.00 0.00 0.00 93 1012.4
20260508103056 75 304 0.0 6.0 0.00 0.00 0.00 93 1012.2
20260508101552 75 9 0.0 3.0 0.00 0.00 0.00 94 1012.2
20260508100049 76 294 1.0 4.0 0.00 0.00 0.00 93 1012.0
20260508094610 76 298 0.0 1.0 0.00 0.00 0.00 93 1011.9
20260508093050 76 298 1.0 4.0 0.00 0.00 0.00 92 1011.7
20260508091553 76 294 0.0 3.0 0.00 0.00 0.00 92 1011.5
20260508090052 76 249 1.0 8.0 0.00 0.00 0.00 91 1011.6
20260508084552 76 291 1.0 3.0 0.00 0.00 0.00 91 1011.4
20260508083053 76 305 1.0 6.0 0.00 0.00 0.00 91 1011.5
20260508081610 76 285 2.0 7.0 0.00 0.00 0.00 90 1011.4
20260508080055 76 275 4.0 9.0 0.00 0.00 0.00 90 1011.5
20260508074552 76 284 3.0 9.0 0.00 0.00 0.00 90 1011.5
20260508073052 77 259 3.0 8.0 0.00 0.00 0.00 90 1011.8
20260508071556 76 293 2.0 8.0 0.00 0.00 0.00 90 1012.0
20260508070057 76 292 4.0 8.0 0.00 0.00 0.00 89 1012.0
20260508064554 76 296 3.0 8.0 0.00 0.00 0.00 89 1012.0
20260508063103 77 258 1.0 8.0 0.00 0.00 0.00 88 1012.1
20260508061557 77 300 2.0 8.0 0.00 0.00 0.00 88 1012.2
20260508060057 77 270 2.0 9.0 0.00 0.00 0.00 87 1012.4
20260508054551 77 276 2.0 9.0 0.00 0.00 0.00 87 1012.3
20260508053051 77 240 2.0 6.0 0.00 0.00 0.00 86 1012.5
20260508051555 77 286 1.0 5.0 0.00 0.00 0.00 85 1012.5
20260508050110 78 253 2.0 7.0 0.00 0.00 0.00 85 1012.4
20260508044553 78 257 2.0 9.0 0.00 0.00 0.00 84 1012.4
20260508043053 78 246 4.0 11.0 0.00 0.00 0.00 83 1012.8
20260508041553 79 213 4.0 10.0 0.00 0.00 0.00 82 1012.4
20260508040058 79 284 4.0 11.0 0.00 0.00 0.00 80 1012.3
20260508034558 80 301 3.0 11.0 0.00 0.00 0.00 79 1012.4
20260508033055 80 309 5.0 13.0 0.00 0.00 0.00 78 1012.2
20260508031556 80 279 4.0 11.0 0.00 0.00 0.00 76 1012.0
20260508030100 81 215 3.0 10.0 0.00 0.00 0.00 75 1011.9
20260508024556 81 254 5.0 13.0 0.00 0.00 0.00 73 1011.9
20260508023055 82 302 4.0 12.0 0.00 0.00 0.00 70 1012.0
20260508021557 82 247 4.0 10.0 0.00 0.00 0.00 69 1011.7
20260508020100 83 297 5.0 12.0 0.00 0.00 0.00 67 1011.5
20260508014557 83 264 3.0 11.0 0.00 0.00 0.00 64 1011.5
20260508013052 84 297 4.0 9.0 0.00 0.00 0.00 63 1011.4
20260508011554 84 254 2.0 6.0 0.00 0.00 0.00 62 1011.2
20260508010053 84 265 2.0 4.0 0.00 0.00 0.00 61 1010.8
20260508004557 85 268 1.0 4.0 0.00 0.00 0.00 60 1010.8
20260508003053 85 267 3.0 9.0 0.00 0.00 0.00 58 1010.7
20260508001556 86 286 2.0 7.0 0.00 0.00 0.00 57 1010.6
20260508000053 86 288 2.0 7.0 0.00 0.00 0.00 56 1010.7
20260507234550 87 298 3.0 9.0 0.00 0.00 0.00 54 1010.7
20260507233055 87 283 2.0 9.0 0.00 0.00 0.00 53 1010.8
20260507231556 88 292 3.0 7.0 0.00 0.00 0.00 53 1010.1
20260507230105 88 290 3.0 9.0 0.00 0.00 0.00 53 1010.2
20260507224559 89 288 4.0 10.0 0.00 0.00 0.00 52 1010.1
20260507223053 89 292 5.0 14.0 0.00 0.00 0.00 52 1009.9
20260507221556 88 232 5.0 13.0 0.00 0.00 0.00 54 1009.9
20260507220058 88 281 4.0 13.0 0.00 0.00 0.00 58 1010.0
20260507214605 87 234 5.0 15.0 0.00 0.00 0.00 60 1009.9
20260507213057 85 190 6.0 16.0 0.00 0.00 0.00 62 1009.4
20260507211556 85 242 4.0 11.0 0.00 0.00 0.00 62 1009.4